[[{"header":{"parameterUnit":"m.s-1","parameterCategory":1,"la1":30.2991,"la2":30.254,"lo1":-89.0895,"lo2":-89.0444,"dy":0.0017,"dx":0.0017,"nx":28,"ny":28,"refTime":"2024-07-16T21:00:00:Z","depth":0,"parameterNumber":2,"parameterNumberName":"U-component_of_WINDS"},"data":[0,0,0,0,0,0,0,0,0,0,0,0,0,0,0,0,0,0,0,0,0,0,0,0,0,0,0,0,0,0,0,0,0,0,0,0,0,0,0,0,0,0,0,0,0,0,0,0,0,0,0,0,0,0,0,0,0,0,0.7903,0.7905,0,0.8059,0.8061,0.8063,0.8135,0.8135,0.8135,0.8134,0.8293,0.8297,0.8302,0,0,0,0,0,0,0,0,0,0,0,0,0,0.7665,0.7669,0.7903,0.7905,0.7907,0.8059,0.8061,0.8063,0.8135,0.8135,0.8134,0.8134,0.8292,0.8297,0.8302,0,0,0,0,0,0,0,0,0,0,0,0,0,0.779,0.7671,0.7903,0.7961,0.7968,0.8058,0.8061,0.8064,0.8135,0.8135,0.8134,0.8134,0.829,0.8296,0.8303,0.8347,0,0,0.8323,0.8326,0,0,0,0,0,0,0,0,0.7783,0.7798,0.7951,0.7957,0.7965,0.8077,0.8036,0.8159,0.8135,0.8071,0.8134,0.8134,0.8222,0.8234,0.8263,0.8354,0.8361,0.8323,0.8327,0.833,0.8332,0,0,0,0,0,0,0,0.7774,0.7792,0.7965,0.7953,0.7962,0.7979,0.7996,0.8059,0.8146,0.8077,0.8083,0.81,0.8225,0.8257,0.8268,0.8363,0.8323,0.8329,0.8333,0.8336,0.8497,0.8498,0,0,0,0,0,0,0.7756,0.7784,0.796,0.797,0.7872,0.7983,0.8003,0.8042,0.8145,0.8161,0.81,0.8103,0.8246,0.826,0.8273,0.8332,0.833,0.8336,0.834,0.8497,0.8497,0.8498,0,0,0,0,0,0,0.7751,0.7771,0.7954,0.7879,0.7903,0.7988,0.803,0.8045,0.8076,0.8163,0.8178,0.8116,0.8246,0.8264,0.8328,0.8338,0.8339,0.8345,0.8496,0.8497,0.8497,0.8448,0,0,0,0,0,0,0.7743,0.7769,0.7787,0.7878,0.7907,0.8006,0.8031,0.8048,0.8087,0.8093,0.8182,0.8197,0.8247,0.8318,0.8334,0.8347,0.835,0.8496,0.8497,0.8497,0.8449,0.8447,0.8445,0,0,0,0,0,0.7735,0.7767,0.7787,0.7808,0.7932,0.8007,0.8023,0.8081,0.8088,0.8107,0.8162,0.8194,0.8334,0.8324,0.8343,0.8358,0.8496,0.8496,0.8497,0.845,0.8447,0.8445,0,0,0,0,0,0,0.7674,0.778,0.7804,0.7867,0.7927,0.8019,0.8044,0.8076,0.8135,0.8138,0.8206,0.8226,0.8283,0.8327,0.8314,0.8405,0.8418,0.8422,0.8375,0.8373,0.8371,0.8359,0.8356,0,0,0,0,0,0.7668,0.772,0.781,0.7856,0.7885,0.7959,0.7994,0.8033,0.8098,0.8124,0.8184,0.8246,0.8304,0.8341,0.8399,0.8455,0.8475,0.8474,0.8472,0.847,0.8474,0.8506,0.8506,0.8501,0.8501,0.8501,0,0,0.7656,0.772,0.7749,0.7846,0.7897,0.7949,0.798,0.8034,0.8074,0.8133,0.8197,0.8242,0.8315,0.8375,0.8405,0.8413,0.8479,0.8471,0.8469,0.8474,0.8507,0.8507,0.8508,0.8501,0.8501,0.8501,0,0,0.7661,0.7715,0.7759,0.781,0.7887,0.7936,0.7946,0.8033,0.8065,0.813,0.8175,0.8222,0.8321,0.8371,0.841,0.8431,0.8463,0.8448,0.8437,0.8468,0.8468,0.8469,0.8477,0.8479,0.8451,0.8451,0.8451,0,0.7636,0.7717,0.7778,0.783,0.787,0.7925,0.797,0.8016,0.8108,0.8135,0.8143,0.8267,0.832,0.8392,0.8397,0.8427,0.844,0.8439,0.8463,0.8465,0.8466,0.8474,0.8477,0.8449,0.8449,0.8449,0.8449,0,0.7683,0.7738,0.7765,0.7852,0.7896,0.7944,0.8011,0.8047,0.8082,0.8129,0.8194,0.826,0.8332,0.8351,0.8386,0.8428,0.8431,0.845,0.8464,0.8464,0.8472,0.8476,0.8445,0.8446,0.8447,0.8447,0,0,0.7655,0.7775,0.7784,0.7824,0.7912,0.7956,0.8005,0.8076,0.8106,0.8167,0.821,0.8291,0.8309,0.8352,0.8393,0.8419,0.8432,0.8436,0.8438,0.8433,0.8482,0.8467,0.847,0.8453,0.8454,0.8454,0.8476,0,0.7673,0.7765,0.7821,0.789,0.7942,0.7994,0.8037,0.8095,0.814,0.819,0.824,0.8296,0.8315,0.8342,0.8371,0.8424,0.8443,0.8423,0.8494,0.8495,0.8474,0.8475,0.846,0.8477,0.848,0.848,0.8481,0,0.7706,0.7766,0.7841,0.7922,0.7946,0.7984,0.8052,0.8099,0.8166,0.8197,0.8244,0.8284,0.8338,0.8346,0.8421,0.8407,0.8438,0.8469,0.8471,0.848,0.8488,0.8484,0.8484,0.8486,0.8487,0.8486,0.8486,0,0.7678,0.7777,0.7835,0.7868,0.7965,0.799,0.8031,0.8098,0.8136,0.8195,0.8221,0.8285,0.8321,0.8369,0.8425,0.8426,0.8494,0.8508,0.8521,0.8519,0.8534,0.8532,0.8539,0.8553,0.8553,0.8553,0.8553,0,0.7693,0.7736,0.7824,0.7859,0.7909,0.7972,0.8019,0.8065,0.8123,0.8168,0.8216,0.8257,0.8328,0.8377,0.8421,0.8476,0.8492,0.8518,0.8529,0.8514,0.8511,0.8536,0.8537,0.8554,0.8553,0.8553,0.8553,0,0.7671,0.7732,0.7798,0.7883,0.7906,0.7939,0.8012,0.8048,0.8095,0.815,0.8167,0.824,0.83,0.8361,0.8442,0.8472,0.8526,0.8541,0.8503,0.851,0.852,0.8518,0.8544,0.855,0.8559,0.8558,0.8558,0,0.7676,0.7711,0.7801,0.7834,0.7874,0.7927,0.7967,0.8028,0.8067,0.8145,0.8171,0.8235,0.8289,0.8383,0.8443,0.8505,0.8522,0.8527,0.8532,0.8515,0.8523,0.852,0.8524,0.8525,0.8524,0.8524,0.8524,0,0.7679,0.7707,0.7762,0.7827,0.7873,0.7927,0.7983,0.8007,0.8079,0.812,0.8182,0.8224,0.8307,0.8369,0.8438,0.848,0.8514,0.8521,0.8528,0.8513,0.849,0.8503,0.8498,0.8521,0.8521,0.8521,0.8522,0.8522,0.7672,0.7705,0.7773,0.7832,0.7881,0.7931,0.7969,0.802,0.8073,0.8145,0.8178,0.824,0.8305,0.8401,0.8442,0.8491,0.85,0.8509,0.8512,0.8513,0.851,0.8481,0.8504,0.8504,0.8504,0.8504,0.8504,0,0.7678,0.7724,0.7777,0.7854,0.79,0.7927,0.799,0.8027,0.8081,0.8139,0.8191,0.8262,0.8322,0.8386,0.845,0.8477,0.8494,0.8492,0.8491,0.85,0.8498,0.8486,0.8477,0.8477,0.8477,0.8477,0.8477,0.8477,0.7686,0.7744,0.7779,0.786,0.7906,0.7968,0.8001,0.8048,0.8094,0.8171,0.8221,0.8262,0.8323,0.8391,0.8447,0.8465,0.8486,0.8479,0.8501,0.8498,0.85,0.8502,0.8491,0.8483,0.8483,0.8499,0.8499,0.8499]},{"header":{"parameterUnit":"m.s-1","parameterCategory":1,"la1":30.2991,"la2":30.254,"lo1":-89.0895,"lo2":-89.0444,"dy":0.0017,"dx":0.0017,"nx":28,"ny":28,"refTime":"2024-07-16T21:00:00:Z","depth":0,"parameterNumber":3,"parameterNumberName":"V-component_of_WINDS"},"data":[0,0,0,0,0,0,0,0,0,0,0,0,0,0,0,0,0,0,0,0,0,0,0,0,0,0,0,0,0,0,0,0,0,0,0,0,0,0,0,0,0,0,0,0,0,0,0,0,0,0,0,0,0,0,0,0,0,0,4.9811,4.981,0,4.9764,4.9764,4.9763,4.9688,4.9687,4.9686,4.9684,4.9637,4.9637,4.9637,0,0,0,0,0,0,0,0,0,0,0,0,0,4.9835,4.9835,4.9811,4.981,4.9809,4.9764,4.9764,4.9763,4.9689,4.9687,4.9685,4.9684,4.9637,4.9637,4.9637,0,0,0,0,0,0,0,0,0,0,0,0,0,4.981,4.9835,4.9811,4.9767,4.9762,4.9764,4.9764,4.9763,4.9689,4.9687,4.9685,4.9683,4.9637,4.9637,4.9637,4.9678,0,0,4.9637,4.9637,0,0,0,0,0,0,0,0,4.9812,4.9809,4.9774,4.977,4.9765,4.973,4.9755,4.9734,4.969,4.9717,4.9684,4.9682,4.967,4.9667,4.9663,4.9676,4.9674,4.9637,4.9637,4.9637,4.9637,0,0,0,0,0,0,0,4.9813,4.9811,4.9792,4.9773,4.9768,4.975,4.9744,4.9751,4.9705,4.9714,4.9709,4.9704,4.9667,4.9663,4.9661,4.9673,4.9637,4.9637,4.9637,4.9637,4.9717,4.9719,0,0,0,0,0,0,4.9822,4.9813,4.9794,4.9791,4.9784,4.9751,4.9744,4.9743,4.9705,4.9697,4.9706,4.9701,4.9664,4.9661,4.9659,4.9704,4.9637,4.9637,4.9637,4.9715,4.9718,4.972,0,0,0,0,0,0,4.9822,4.9821,4.9796,4.98,4.9796,4.9753,4.9752,4.9743,4.9739,4.9699,4.969,4.971,4.9662,4.9659,4.9674,4.9701,4.9637,4.9637,4.9713,4.9716,4.9719,4.9795,0,0,0,0,0,0,4.9823,4.9821,4.9836,4.9801,4.9796,4.9811,4.9754,4.9744,4.974,4.9732,4.9701,4.9693,4.966,4.9674,4.9674,4.97,4.9637,4.971,4.9714,4.9718,4.979,4.98,4.981,0,0,0,0,0,4.9825,4.986,4.9838,4.9836,4.9814,4.9813,4.981,4.9771,4.9742,4.9757,4.9731,4.9694,4.9699,4.9676,4.9675,4.9702,4.9708,4.9713,4.9718,4.9785,4.9798,4.9809,0,0,0,0,0,0,4.9899,4.9854,4.9829,4.9854,4.9838,4.98,4.9818,4.9786,4.9778,4.9772,4.9724,4.9717,4.9738,4.9722,4.9698,4.974,4.9698,4.9703,4.975,4.9762,4.9771,4.9774,4.9637,0,0,0,0,0,4.9919,4.9922,4.9882,4.9908,4.9901,4.9861,4.986,4.9831,4.9813,4.9805,4.978,4.9764,4.9761,4.9761,4.9756,4.9787,4.9779,4.9805,4.9815,4.9823,4.9828,4.9843,4.9854,4.9736,4.9736,4.9736,0,0,4.9959,4.9935,4.994,4.9923,4.9907,4.9911,4.9856,4.9863,4.9866,4.9806,4.9819,4.98,4.9778,4.9802,4.981,4.9788,4.9859,4.983,4.9836,4.9836,4.9849,4.986,4.987,4.9739,4.9738,4.9738,0,0,5.0034,5.0016,5.0035,5.0021,4.9997,4.9971,4.9976,4.9943,4.9928,4.994,4.9895,4.9898,4.9895,4.9881,4.9874,4.9944,4.991,4.9944,4.9995,5.001,5.0019,5.0027,5.0052,5.0061,4.9949,4.9949,4.9949,0,5.0086,5.0091,5.0049,5.0059,5.0053,5.0,5.0019,5.0007,4.9983,4.998,4.9956,4.9951,4.9932,4.9951,4.9969,4.9965,4.9968,4.9947,5.0021,5.0029,5.0036,5.0059,5.0068,4.9953,4.9953,4.9952,4.9952,0,5.0157,5.0161,5.0179,5.0158,5.0154,5.0169,5.0129,5.013,5.0102,5.0078,5.0091,5.0067,5.0056,5.0059,5.0032,5.0074,5.0061,5.003,4.9987,5.0052,5.0073,5.0081,4.9959,4.9958,4.9956,4.9955,0,0,5.0277,5.0233,5.024,5.023,5.02,5.0203,5.0215,5.0205,5.0206,5.0192,5.0201,5.02,5.0171,5.0162,5.0133,5.0147,5.0203,5.0113,5.0112,5.0131,5.0248,5.0271,5.0282,5.0181,5.0183,5.0184,5.025,0,5.0345,5.0363,5.0326,5.0353,5.0356,5.0306,5.0317,5.03,5.0278,5.0277,5.0253,5.0252,5.0214,5.0209,5.022,5.0194,5.0226,5.0189,5.0188,5.0189,5.0195,5.0293,5.0318,5.0381,5.0258,5.0259,5.026,0,5.0427,5.0417,5.0445,5.0414,5.0414,5.0424,5.0412,5.0412,5.0392,5.0375,5.0366,5.0332,5.0341,5.0301,5.0313,5.0289,5.0286,5.0274,5.0275,5.0273,5.0228,5.0293,5.04,5.041,5.0272,5.0271,5.027,0,5.0512,5.0505,5.052,5.0513,5.0478,5.0486,5.0472,5.0449,5.0446,5.0435,5.0432,5.0423,5.0418,5.0412,5.0376,5.0349,5.0393,5.0349,5.0378,5.0379,5.0389,5.0389,5.0497,5.0389,5.0389,5.0389,5.0388,0,5.0591,5.061,5.0558,5.0567,5.0587,5.0544,5.0564,5.0545,5.0526,5.0531,5.0487,5.0492,5.0445,5.0445,5.0418,5.0432,5.043,5.0416,5.0408,5.042,5.0421,5.0417,5.0411,5.0391,5.039,5.039,5.039,0,5.0688,5.0654,5.0667,5.0633,5.0625,5.064,5.0611,5.0618,5.0593,5.06,5.0599,5.056,5.0558,5.0522,5.0512,5.0494,5.0519,5.0503,5.0526,5.052,5.0552,5.0549,5.066,5.0672,5.0558,5.0559,5.056,0,5.0741,5.0754,5.0721,5.0721,5.0709,5.071,5.0706,5.0664,5.0662,5.064,5.065,5.0645,5.0638,5.0637,5.0608,5.06,5.0584,5.0623,5.0582,5.0593,5.0583,5.0583,5.0584,5.0632,5.0633,5.0634,5.0635,0,5.0838,5.0821,5.0817,5.0807,5.0804,5.0794,5.0781,5.0784,5.0739,5.0738,5.0736,5.0731,5.0721,5.0716,5.0703,5.0688,5.0654,5.0649,5.0655,5.0666,5.0678,5.0671,5.0549,5.0646,5.0645,5.0644,5.0644,5.0643,5.0914,5.0923,5.0902,5.0899,5.0885,5.0874,5.0879,5.0856,5.0853,5.0841,5.0818,5.0819,5.0798,5.0777,5.0765,5.0765,5.0745,5.0754,5.0757,5.0759,5.0765,5.0679,5.0763,5.0763,5.0762,5.0762,5.0762,0,5.1009,5.0992,5.099,5.0974,5.0972,5.0941,5.0925,5.0925,5.0927,5.0911,5.0905,5.0902,5.0897,5.0868,5.0859,5.0865,5.0849,5.0864,5.0863,5.086,5.0784,5.0779,5.0877,5.0877,5.0877,5.0877,5.0877,5.0877,5.1057,5.1071,5.1051,5.1058,5.1041,5.1042,5.1036,5.1026,5.1013,5.1012,5.1007,5.0988,5.0967,5.0956,5.095,5.0942,5.094,5.096,5.0947,5.0876,5.0865,5.0855,5.085,5.0961,5.0961,5.1022,5.1023,5.1023]}]]